When you browse on this site, cookies collect data to enhance your experience and personalize the content and advertising you see.
Visit our Privacy Policy to learn more. By continuing to use the site, you agree to this use of cookies and data.
  • In Germany
  • List of Countries
  • For 7 days
  • Water Temperature
  • Weather Map
  • Weather Widgets
  • user-avatar
    Login

    Hourly Weather San Luis

    Today, 19 August, Monday

    Time Temperature Precipitation Wind Pressure Humidity
    00:00 +5°C° 0 mm 6 mps 705 mmHg 68%
    01:00 +6°C° 0 mm 5 mps 705 mmHg 69%
    02:00 +5°C° 0 mm 4 mps 705 mmHg 70%
    03:00 +5°C° 0 mm 4 mps 704 mmHg 71%
    04:00 +5°C° 0 mm 5 mps 704 mmHg 71%
    05:00 +5°C° 0 mm 5 mps 703 mmHg 72%
    06:00 +6°C° 0 mm 5 mps 704 mmHg 71%
    07:00 +6°C° 0 mm 5 mps 704 mmHg 70%
    08:00 +7°C° 0 mm 5 mps 705 mmHg 69%
    09:00 +8°C° 0 mm 6 mps 705 mmHg 65%
    10:00 +9°C° 0 mm 7 mps 705 mmHg 60%
    11:00 +10°C° 0 mm 8 mps 705 mmHg 56%
    12:00 +11°C° 0 mm 7 mps 704 mmHg 55%
    13:00 +11°C° 0 mm 7 mps 704 mmHg 55%
    14:00 +11°C° 0 mm 6 mps 703 mmHg 54%
    15:00 +12°C° 0 mm 5 mps 702 mmHg 54%
    16:00 +12°C° 0 mm 5 mps 702 mmHg 54%
    17:00 +12°C° 0 mm 4 mps 702 mmHg 53%
    18:00 +11°C° 0 mm 3 mps 702 mmHg 59%
    19:00 +9°C° 0 mm 2 mps 702 mmHg 65%
    20:00 +9°C° 0 mm 1 mps 703 mmHg 71%
    21:00 +8°C° 0 mm 2 mps 703 mmHg 71%
    22:00 +8°C° 0 mm 2 mps 703 mmHg 72%
    23:00 +7°C° 0 mm 2 mps 703 mmHg 72%

    Tomorrow, 20 August, Tuesday

    Time Temperature Precipitation Wind Pressure Humidity
    00:00 +7°C° 0 mm 2 mps 703 mmHg 71%
    01:00 +7°C° 0 mm 2 mps 703 mmHg 71%
    02:00 +7°C° 0 mm 2 mps 703 mmHg 70%
    03:00 +7°C° 0 mm 2 mps 703 mmHg 69%
    04:00 +7°C° 0 mm 2 mps 703 mmHg 68%
    05:00 +6°C° 0 mm 2 mps 703 mmHg 67%
    06:00 +7°C° 0 mm 3 mps 704 mmHg 63%
    07:00 +8°C° 0 mm 3 mps 704 mmHg 60%
    08:00 +8°C° 0 mm 3 mps 705 mmHg 56%
    09:00 +10°C° 0 mm 4 mps 705 mmHg 50%
    10:00 +12°C° 0 mm 4 mps 705 mmHg 44%
    11:00 +14°C° 0 mm 4 mps 705 mmHg 38%
    12:00 +15°C° 0 mm 4 mps 705 mmHg 36%
    13:00 +15°C° 0 mm 4 mps 704 mmHg 34%
    14:00 +17°C° 0 mm 4 mps 704 mmHg 32%
    15:00 +17°C° 0 mm 4 mps 703 mmHg 32%
    16:00 +17°C° 0 mm 4 mps 703 mmHg 33%
    17:00 +17°C° 0 mm 4 mps 702 mmHg 33%
    18:00 +14°C° 0 mm 4 mps 702 mmHg 37%
    19:00 +12°C° 0 mm 3 mps 702 mmHg 41%
    20:00 +11°C° 0 mm 3 mps 702 mmHg 45%
    21:00 +10°C° 0 mm 3 mps 702 mmHg 46%
    22:00 +10°C° 0 mm 3 mps 702 mmHg 47%
    23:00 +10°C° 0 mm 4 mps 702 mmHg 48%

    Day after tomorrow, 21 August, Wednesday

    Time Temperature Precipitation Wind Pressure Humidity
    00:00 +8°C° 0 mm 4 mps 702 mmHg 49%
    01:00 +8°C° 0 mm 4 mps 702 mmHg 49%
    02:00 +7°C° 0 mm 4 mps 702 mmHg 50%
    03:00 +7°C° 0 mm 4 mps 701 mmHg 50%
    04:00 +7°C° 0 mm 4 mps 701 mmHg 50%
    05:00 +7°C° 0 mm 4 mps 701 mmHg 50%
    06:00 +7°C° 0 mm 4 mps 701 mmHg 49%
    07:00 +8°C° 0 mm 4 mps 702 mmHg 48%
    08:00 +10°C° 0 mm 4 mps 702 mmHg 46%
    09:00 +11°C° 0 mm 4 mps 702 mmHg 42%
    10:00 +13°C° 0 mm 5 mps 702 mmHg 37%
    11:00 +15°C° 0 mm 5 mps 702 mmHg 32%
    12:00 +16°C° 0 mm 5 mps 701 mmHg 31%
    13:00 +17°C° 0 mm 5 mps 701 mmHg 29%
    14:00 +19°C° 0 mm 5 mps 700 mmHg 28%
    15:00 +19°C° 0 mm 5 mps 700 mmHg 28%
    16:00 +19°C° 0 mm 4 mps 700 mmHg 28%
    17:00 +19°C° 0 mm 4 mps 699 mmHg 28%
    18:00 +17°C° 0 mm 3 mps 699 mmHg 33%
    19:00 +14°C° 0 mm 3 mps 700 mmHg 38%
    20:00 +13°C° 0 mm 2 mps 700 mmHg 43%
    21:00 +12°C° 0 mm 2 mps 700 mmHg 44%
    22:00 +12°C° 0 mm 2 mps 701 mmHg 46%
    23:00 +12°C° 0 mm 2 mps 701 mmHg 47%

    22 August, Thursday

    Time Temperature Precipitation Wind Pressure Humidity
    00:00 +10°C° 0 mm 2 mps 701 mmHg 50%
    01:00 +11°C° 0 mm 1 mps 701 mmHg 52%
    02:00 +10°C° 0 mm 1 mps 701 mmHg 55%
    03:00 +10°C° 0 mm 1 mps 702 mmHg 57%
    04:00 +9°C° 0 mm 1 mps 702 mmHg 58%
    05:00 +9°C° 0 mm 1 mps 702 mmHg 60%
    06:00 +10°C° 0 mm 1 mps 703 mmHg 57%
    07:00 +11°C° 0 mm 1 mps 703 mmHg 53%
    08:00 +12°C° 0 mm 1 mps 704 mmHg 50%
    09:00 +14°C° 0 mm 1 mps 705 mmHg 44%
    10:00 +16°C° 0 mm 2 mps 705 mmHg 39%
    11:00 +18°C° 0 mm 3 mps 706 mmHg 34%
    12:00 +19°C° 0 mm 3 mps 705 mmHg 32%
    13:00 +19°C° 0 mm 3 mps 705 mmHg 30%
    14:00 +20°C° 0 mm 3 mps 704 mmHg 29%
    15:00 +20°C° 0 mm 4 mps 704 mmHg 30%
    16:00 +20°C° 0 mm 4 mps 704 mmHg 31%
    17:00 +19°C° 0 mm 5 mps 704 mmHg 32%
    18:00 +17°C° 0 mm 5 mps 704 mmHg 36%
    19:00 +15°C° 0 mm 4 mps 704 mmHg 41%
    20:00 +13°C° 0 mm 4 mps 704 mmHg 46%
    21:00 +13°C° 0 mm 4 mps 704 mmHg 47%
    22:00 +13°C° 0 mm 4 mps 704 mmHg 47%
    23:00 +12°C° 0 mm 3 mps 705 mmHg 48%

    23 August, Friday

    Time Temperature Precipitation Wind Pressure Humidity
    00:00 +12°C° 0 mm 3 mps 704 mmHg 48%
    01:00 +12°C° 0 mm 3 mps 704 mmHg 48%
    02:00 +12°C° 0 mm 3 mps 704 mmHg 48%
    03:00 +12°C° 0 mm 3 mps 703 mmHg 50%
    04:00 +11°C° 0 mm 3 mps 703 mmHg 53%
    05:00 +11°C° 0 mm 3 mps 703 mmHg 55%
    06:00 +11°C° 0 mm 3 mps 703 mmHg 55%
    07:00 +12°C° 0 mm 3 mps 703 mmHg 56%
    08:00 +13°C° 0 mm 4 mps 703 mmHg 56%
    09:00 +15°C° 0 mm 4 mps 703 mmHg 50%
    10:00 +17°C° 0 mm 5 mps 703 mmHg 43%
    11:00 +20°C° 0 mm 6 mps 703 mmHg 37%
    12:00 +20°C° 0 mm 6 mps 702 mmHg 35%
    13:00 +21°C° 0 mm 6 mps 701 mmHg 33%
    14:00 +22°C° 0 mm 6 mps 701 mmHg 32%
    15:00 +21°C° 0 mm 6 mps 700 mmHg 32%
    16:00 +21°C° 0 mm 6 mps 699 mmHg 33%
    17:00 +21°C° 0 mm 5 mps 699 mmHg 33%
    18:00 +19°C° 0 mm 5 mps 698 mmHg 38%
    19:00 +17°C° 0 mm 4 mps 698 mmHg 43%
    20:00 +14°C° 0 mm 4 mps 698 mmHg 47%
    21:00 +14°C° 0 mm 4 mps 698 mmHg 48%
    22:00 +14°C° 0 mm 4 mps 698 mmHg 49%
    23:00 +13°C° 0 mm 5 mps 698 mmHg 50%

    24 August, Saturday

    Time Temperature Precipitation Wind Pressure Humidity
    00:00 +13°C° 0 mm 5 mps 697 mmHg 52%
    01:00 +13°C° 0 mm 5 mps 697 mmHg 54%
    02:00 +12°C° 0 mm 5 mps 697 mmHg 56%
    03:00 +12°C° 0 mm 5 mps 697 mmHg 58%
    04:00 +11°C° 0 mm 4 mps 696 mmHg 60%
    05:00 +11°C° 0 mm 4 mps 696 mmHg 62%
    06:00 +12°C° 0 mm 4 mps 697 mmHg 60%
    07:00 +12°C° 0 mm 3 mps 697 mmHg 58%
    08:00 +13°C° 0 mm 3 mps 697 mmHg 57%
    09:00 +16°C° 0 mm 3 mps 698 mmHg 52%
    10:00 +18°C° 0 mm 4 mps 698 mmHg 47%
    11:00 +20°C° 0 mm 4 mps 698 mmHg 42%
    12:00 +20°C° 0 mm 4 mps 698 mmHg 39%
    13:00 +21°C° 0 mm 3 mps 697 mmHg 37%
    14:00 +22°C° 0 mm 3 mps 696 mmHg 34%
    15:00 +22°C° 0 mm 3 mps 696 mmHg 34%
    16:00 +22°C° 0 mm 3 mps 696 mmHg 34%
    17:00 +23°C° 0 mm 2 mps 695 mmHg 34%
    18:00 +20°C° 0 mm 2 mps 695 mmHg 41%
    19:00 +18°C° 0 mm 2 mps 695 mmHg 47%
    20:00 +15°C° 0 mm 1 mps 695 mmHg 53%
    21:00 +15°C° 0 mm 1 mps 695 mmHg 57%
    22:00 +14°C° 0 mm 1 mps 695 mmHg 61%
    23:00 +14°C° 0 mm 1 mps 695 mmHg 64%
    Show more